Location: Kelowna
(49.8880°N, 119.4960°W)
Time: 14:47:29
(UTC-07:00)

TIGRISAT - Pass Details

Date: 24 April 2024
Orbit: 594 x 672 km, 97.7° (Epoch: 27 May)

Event Time Altitude Azimuth Distance (km) Brightness Sun altitude
Rises 03:06:49 0° 109° (ESE) 2,913 ? -20.8°
Reaches altitude 10° 03:10:16 10° 80° (E) 1,992 ? -20.5°
Maximum altitude 03:12:00 12° 56° (ENE) 1,837 ? -20.3°
Drops below altitude 10° 03:13:44 10° 32° (NNE) 1,979 ? -20.1°
Sets 03:17:07 0° 3° (N) 2,874 ? -19.8°
